www.pogodaiklimat.ru

Погода и климат >> Архив погоды >> Индия >> Мадхья-Прадеш >> Хошангабад


ПОГОДА в Хошангабаде

  • Прогноз погоды в Хошангабаде
  • Монитор погоды в Хошангабаде

АРХИВ ПОГОДЫ в Хошангабаде

Время (UTC), дата Ветер
(напр.,м/с)
 
Видим.   Явления Облачность Т
(С)
Тd
(С)
f
(%)
Тe
(С)
Тes
(С)
Комфортность P
(гПа)
Po
(гПа)
Тmin
(С)
Tmax
(С)
R
(мм)
R24
(мм)
S
(см)
03 14.07 ЮЗ 1 4000 м 6/3 750 м
[Sc Ac trans]
+28.0 +23.0 74 +37 +42 очень
душно
1004.4 970.9 +26.4
06 14.07 ЮЗ 1 10 км 5/3 750 м
[Sc Ac trans]
+31.0 +22.2 60 +40 +55 опасность
солнечного
удара
1003.3 970.1
09 14.07 ЮЗ 1 4000 м 5/4 750 м
[Sc Ac trans]
+33.4 +21.3 49 +41 +51 опасность
перегрева
1001.0 968.2
12 14.07 ЮЗ 1 4000 м 6/4 750 м
[Sc Ac trans]
+32.6 +21.4 52 +41 +42 опасность
перегрева
1000.0 967.1 +33.6
03 15.07 ЮЗ 1 4000 м 6/3 750 м
[Sc Ac trans]
+28.4 +23.5 75 +39 +44 очень
душно
1002.1 968.8 +26.6
06 15.07 ЮЗ 1 10 км 6/3 750 м
[Sc Ac trans]
+30.0 +24.6 73 +43 +57 опасность
перегрева
1002.1 968.9
09 15.07 ЮЗ 1 10 км 5/4 750 м
[Sc diur, vesp Ac trans]
+34.0 +20.3 45 +41 +51 опасность
перегрева
1000.5 967.7
12 15.07 З 2 10 км 3/3 750 м
[Sc]
+34.4 +19.7 42 +40 +42 очень
душно
998.5 965.9 +34.5
03 16.07 ЮЗ 0 н/о +28.6 +24.3 78 +40 +47 очень
душно
1003.8 970.4 +26.8
06 16.07 З 1 10 км 3/3 750 м
[Sc]
+32.4 +21.5 53 +41 +58 опасность
перегрева
1004.1 971.1
09 16.07 ЮЗ 2 10 км 6/3 750 м
[Sc Ac trans]
+34.0 +21.7 49 +42 +52 опасность
перегрева
1001.8 969.0
12 16.07 ЮЗ 2 10 км 1/1 750 м
[Sc]
+35.4 +19.5 39 +41 +43 опасность
перегрева
1000.1 967.5 +35.6
03 17.07 ЮЗ 1 4000 м 1/1 1050 м
[Cu hum]
+29.0 +23.2 71 +39 +48 очень
душно
1004.6 971.1 +26.4
06 17.07 ЮЗ 1 10 км 4/4 750 м
[Sc]
+32.8 +23.6 59 +44 +60 опасность
перегрева
1003.7 970.7
09 17.07 ЮЗ 1 10 км 4/4 750 м
[Sc]
+35.0 +21.9 47 +44 +56 опасность
перегрева
1001.0 968.7
12 17.07 ЮЗ 1 10 км 1/1 750 м
[Sc]
+35.8 +21.4 43 +43 +46 опасность
перегрева
999.0 966.5 +36.1
03 18.07 ЮЗ 1 4000 м ясно +29.6 +22.2 64 +38 +48 очень
душно
1003.2 969.9 +27.0
06 18.07 штиль 0 10 км 4/4 750 м
[Sc diur, vesp]
+33.4 +24.3 59 +46 +63 опасность
перегрева
1002.6 969.8
09 18.07 штиль 0 10 км 4/4 750 м
[Sc diur, vesp]
+37.0 +21.2 40 +44 +57 опасность
перегрева
999.8 967.4
12 18.07 ЮЗ 1 4000 м 4/4 750 м
[Sc diur, vesp]
+35.6 +21.6 44 +43 +45 опасность
перегрева
997.5 965.0 +38.1
03 19.07 штиль 0 4000 м 5/1 750 м
[Sc Ac trans]
+32.2 +22.6 57 +42 +49 опасность
перегрева
1001.6 968.7 +29.0
06 19.07 штиль 0 10 км 6/3 750 м
[Sc Ac trans]
+34.4 +24.2 55 +46 +61 опасность
перегрева
1001.1 968.4
09 19.07 ЮЗ 1 4000 м в посл. час гроза {морось} 5/4 750 м
[Cb cap Ac trans]
+31.0 +24.3 68 +43 +54 опасность
перегрева
999.8 966.9 0.0
12 19.07 З 1 4000 м {гроза, морось} 8/4 750 м
[Sc Ac trans]
+31.4 +23.9 64 +43 +44 опасность
перегрева
1000.4 967.4 +37.2 0.0
03 20.07 штиль 0 4000 м 6/3 750 м
[Sc Ac trans]
+28.2 +25.4 85 +41 +47 опасность
перегрева
1002.5 969.1 +26.2 0.0
06 20.07 штиль 0 4000 м 10/4 750 м
[Sc Ac trans]
+29.2 +26.7 86 +45 +52 опасность
перегрева
1002.6 969.3
09 20.07 штиль 0 10 км 3/3 750 м
[Sc]
+35.4 +25.3 56 +49 +65 опасность
перегрева
999.1 966.6
12 20.07 штиль 0 4000 м 8/4 750 м
[Sc Ac trans]
+35.0 +26.1 60 +51 +52 опасность
перегрева
997.6 965.0 +36.1

 

Местоположение метеостанции Хошангабад (Мадхья-Прадеш, Индия): широта 22.77 долгота 77.77 высота над уровнем моря 302 м.

В архиве по умолчанию представлена погода в Хошангабаде за последнюю неделю. Архивные данные за месяц целиком и за предыдущие месяцы, начиная с января 2011 года, Вы можете получить, выбрав интересующий диапазон дат из раскрывающегося списка и нажав кнопку "Ввод!".


*Определитесь, кто Вы:
робот инопланетянин человек

Внимание! Время в таблицах - всемирное. Для получения местного времени необходимо прибавить поправку, которая равна 5.5 ч.

Смотрите также архив погоды в соседних городах и на ближайших метеорологических станциях:

Погода в Райсене (Мадхья-Прадеш, Индия) (61 км)
Погода в Бхопале (Мадхья-Прадеш, Индия) (71 км)
Погода в Пачмарае (Мадхья-Прадеш, Индия) (76 км)
Погода в Бетуле (Мадхья-Прадеш, Индия) (101 км)
Погода в Нарсингпуре (Мадхья-Прадеш, Индия) (146 км)
Погода в Чхиндваре (Мадхья-Прадеш, Индия) (147 км)
Погода в Сагаре (Мадхья-Прадеш, Индия) (156 км)
Погода в Шаджапуре (Мадхья-Прадеш, Индия) (166 км)
Погода в Раджгархе (Мадхья-Прадеш, Индия) (174 км)
Погода в Кхандве (Мадхья-Прадеш, Индия) (178 км)

Пояснения к столбцам:

Ветер - указаны скорость ветра в м/с - средняя за 10 мин, порывы в срок и между сроками (в фигурных скобках) и направление, откуда дует ветер: С - северный, СВ - северо-восточный, В - восточный, ЮВ - юго-восточный, Ю - южный, ЮЗ - юго-западный, З - западный, СЗ - северо-западный.
Видимость - горизонтальная дальность видимости в метрах или километрах. При видимости от 1 до 10 км при отсутствии осадков обычно наблюдается дымка, при ухудшении видимости до 1 км и менее - туман. В сухую погоду видимость может ухудшаться дымом, пылью или мглою.
Явления - указаны атмосферные явления, наблюдавшиеся в срок или в последний час перед сроком; фигурными скобками обозначены явления, наблюдавшиеся между сроками (за 1-3 часа до срока); квадратными скобками обозначены град или гололедные отложения с указанием их диаметра в мм.
Облачность - указаны через наклонную черту общая и нижняя облачность в баллах и высота нижней границы облаков в метрах; квадратными скобками обозначены формы облаков: Ci - перистые, Cs - перисто-слоистые, Cc - перисто-кучевые, Ac - высококучевые, As - высокослоистые, Sc - слоисто-кучевые, Ns - слоисто-дождевые, Cu - кучевые, Cb - кучево-дождевые. Подробнее классификацию облаков см. в Атласе облаков (PDF).
T - Температура воздуха - температура, измеренная на высоте 2 м над землей.
Td - Температура точки росы - температура, при понижении до которой содержащийся в воздухе водяной пар достигнет насыщения.
f - Относительная влажность воздуха - влажноcть воздуха, измеренная на высоте 2 м над землей.
Te - Эффективная температура - температура, которую ощущает одетый по сезону человек в тени. Характеристика душности погоды. При расчете учитывается влияние влажности воздуха и скорости ветра на теплоощущения человека.
Tes - Эффективная температура на солнце - температура, которую ощущает человек, с поправкой на солнечный нагрев. Характеристика знойности погоды. Зависит от высоты солнца над горизонтом, облачности и скорости ветра. Ночью, в пасмурную погоду, а также при ветре 12 м/с и более поправка равна нулю.
P - Атмосферное давление - приведенное к уровню моря атмосферное давление.
Po - Атмосферное давление - измеренное на уровне метеостанции атмосферное давление.
Tmin - Минимальная температура - минимум температуры воздуха на высоте 2 м над землей.
Tmax - Максимальная температура - максимум температуры воздуха на высоте 2 м над землей.
R - Количество осадков - Количество выпавших осадков за период времени, мм. При наведении курсора мыши на число - период времени, за который выпало указанное количество осадков.
R24 - Количество осадков - Количество выпавших осадков за 24 часа, мм.
S - Снежный покров - Высота снежного покрова, см. При наведении курсора мыши на число - состояние снежного покрова и степень покрытия местности в баллах.